KC0AFB Weather Reports


time (UTC)temp
C
wind
direction
speed
KPH
gust
KPH
rain 1hr
cm
rain 24hr
cm
rain mn
cm
humidity
%
barometer
mb
20260906022750 23 76 11.3 14.5 0.00 0.00 0.00 82 1014.0
20260906022245 23 63 14.5 20.9 0.00 0.00 0.00 81 1013.8
20260906021742 23 72 9.7 14.5 0.00 0.00 0.00 80 1013.6
20260906021240 24 72 6.4 8.0 0.00 0.00 0.00 79 1013.9
20260906020735 24 91 4.8 8.0 0.00 0.00 0.00 78 1013.6
20260906020235 24 93 8.0 9.7 0.00 0.00 0.00 77 1013.6
20260906015730 24 96 8.0 9.7 0.00 0.00 0.00 76 1013.3
20260906015228 25 108 9.7 11.3 0.00 0.00 0.00 75 1013.7
20260906014723 25 81 9.7 9.7 0.00 0.00 0.00 74 1013.3
20260906014219 25 81 9.7 11.3 0.00 0.00 0.00 74 1013.4
20260906013715 25 102 12.9 14.5 0.00 0.00 0.00 73 1013.2
20260906013215 25 95 12.9 14.5 0.00 0.00 0.00 72 1013.2
20260906012710 25 106 11.3 14.5 0.00 0.00 0.00 72 1013.2
20260906012204 25 103 8.0 9.7 0.00 0.00 0.00 71 1013.0
20260906011659 25 99 11.3 12.9 0.00 0.00 0.00 71 1013.2
20260906011154 25 72 11.3 14.5 0.00 0.00 0.00 70 1013.1
20260906010650 26 86 9.7 11.3 0.00 0.00 0.00 70 1013.1
20260906010146 26 82 6.4 8.0 0.00 0.00 0.00 69 1013.2
20260906005645 26 85 8.0 9.7 0.00 0.00 0.00 68 1012.9
20260906005144 27 105 12.9 14.5 0.00 0.00 0.00 68 1013.2
20260906004644 27 94 9.7 11.3 0.00 0.00 0.00 66 1013.1
20260906004139 27 113 11.3 12.9 0.00 0.00 0.00 66 1013.2
20260906003634 27 80 8.0 9.7 0.00 0.00 0.00 66 1013.2
20260906003130 28 100 6.4 8.0 0.00 0.00 0.00 67 1013.2
20260906002624 28 102 8.0 14.5 0.00 0.00 0.00 68 1013.3
20260906002119 28 153 14.5 22.5 0.00 0.00 0.00 68 1013.5
20260906001614 28 112 12.9 16.1 0.00 0.00 0.00 68 1013.4
20260906001109 28 108 14.5 16.1 0.00 0.00 0.00 68 1013.7
20260906000605 28 88 17.7 22.5 0.00 0.00 0.00 68 1013.7
20260906000100 28 136 16.1 20.9 0.00 0.00 0.00 69 1013.6
20260905235559 28 75 12.9 17.7 0.00 0.00 0.00 70 1013.8
20260905235054 28 109 19.3 22.5 0.00 0.00 0.00 70 1013.7
20260905234550 28 135 11.3 14.5 0.00 0.00 0.00 69 1013.7
20260905234044 28 109 17.7 25.7 0.00 0.00 0.00 69 1013.7
20260905233539 28 128 14.5 17.7 0.00 0.00 0.00 69 1013.6
20260905233039 28 129 20.9 22.5 0.00 0.00 0.00 69 1013.7
20260905232534 29 65 22.5 29.0 0.00 0.00 0.00 67 1013.4
20260905232030 30 109 11.3 14.5 0.00 0.00 0.00 65 1013.3
20260905231525 31 66 19.3 27.4 0.00 0.00 0.00 58 1013.4
20260905231021 32 68 16.1 17.7 0.00 0.00 0.00 52 1013.0
20260905230520 32 108 14.5 16.1 0.00 0.00 0.00 52 1013.1
20260905230019 32 112 19.3 24.1 0.00 0.00 0.00 51 1012.9
20260905225514 32 110 9.7 11.3 0.00 0.00 0.00 52 1012.9
20260905225009 32 136 16.1 24.1 0.00 0.00 0.00 51 1012.9
20260905224504 32 120 11.3 12.9 0.00 0.00 0.00 51 1013.0
20260905224003 32 85 11.3 12.9 0.00 0.00 0.00 51 1012.3
20260905223501 32 95 16.1 20.9 0.00 0.00 0.00 51 1012.4
20260905222956 32 121 12.9 17.7 0.00 0.00 0.00 50 1012.1
20260905222456 32 168 16.1 22.5 0.00 0.00 0.00 50 1011.9
20260905221951 32 100 14.5 16.1 0.00 0.00 0.00 50 1011.9
20260905221448 33 119 17.7 20.9 0.00 0.00 0.00 49 1011.9
20260905220944 33 92 9.7 11.3 0.00 0.00 0.00 49 1011.9
20260905220440 33 121 9.7 11.3 0.00 0.00 0.00 48 1011.8
20260905215938 33 155 11.3 14.5 0.00 0.00 0.00 47 1012.0
20260905215434 33 74 12.9 16.1 0.00 0.00 0.00 47 1012.1
20260905214930 33 134 4.8 4.8 0.00 0.00 0.00 46 1012.5
20260905214425 33 81 16.1 17.7 0.00 0.00 0.00 48 1012.7
20260905213920 33 164 9.7 14.5 0.00 0.00 0.00 44 1012.7
20260905213416 33 154 11.3 12.9 0.00 0.00 0.00 44 1012.6
20260905212912 33 113 8.0 11.3 0.00 0.00 0.00 45 1012.5
20260905212406 33 105 16.1 17.7 0.00 0.00 0.00 44 1012.6
20260905211900 33 124 12.9 14.5 0.00 0.00 0.00 44 1012.6
20260905211356 33 120 8.0 9.7 0.00 0.00 0.00 45 1012.3
20260905210852 33 89 11.3 16.1 0.00 0.00 0.00 45 1012.6
20260905210351 33 92 8.0 9.7 0.00 0.00 0.00 44 1012.4
20260905205850 33 118 14.5 17.7 0.00 0.00 0.00 44 1012.5
20260905205345 33 102 16.1 17.7 0.00 0.00 0.00 45 1012.5
20260905204844 32 87 9.7 12.9 0.00 0.00 0.00 46 1012.4
20260905204341 33 122 11.3 14.5 0.00 0.00 0.00 46 1012.7
20260905203838 32 110 14.5 17.7 0.00 0.00 0.00 45 1012.5
20260905203335 32 132 6.4 8.0 0.00 0.00 0.00 46 1012.6
20260905202825 32 171 14.5 17.7 0.00 0.00 0.00 44 1012.4
20260905202319 33 141 17.7 22.5 0.00 0.00 0.00 45 1012.7
20260905201815 33 149 16.1 17.7 0.00 0.00 0.00 44 1012.7
20260905201311 33 107 9.7 12.9 0.00 0.00 0.00 45 1012.7
20260905200805 32 143 9.7 11.3 0.00 0.00 0.00 45 1013.0
20260905200301 32 155 14.5 14.5 0.00 0.00 0.00 46 1012.9
20260905195759 32 161 14.5 14.5 0.00 0.00 0.00 46 1012.9
20260905195254 32 162 8.0 9.7 0.00 0.00 0.00 45 1012.9
20260905194749 32 102 11.3 12.9 0.00 0.00 0.00 48 1012.7
20260905194248 32 74 9.7 11.3 0.00 0.00 0.00 47 1013.2
20260905193743 33 164 9.7 11.3 0.00 0.00 0.00 48 1013.1
20260905193238 32 145 4.8 8.0 0.00 0.00 0.00 47 1013.2
20260905192733 32 94 11.3 14.5 0.00 0.00 0.00 47 1013.2
20260905192230 32 168 14.5 17.7 0.00 0.00 0.00 47 1013.1
20260905191729 32 137 11.3 12.9 0.00 0.00 0.00 47 1013.2
20260905191227 32 154 8.0 9.7 0.00 0.00 0.00 48 1013.4
20260905190726 32 158 8.0 9.7 0.00 0.00 0.00 47 1013.4
20260905190225 32 69 6.4 8.0 0.00 0.00 0.00 49 1013.5
20260905185724 32 128 16.1 17.7 0.00 0.00 0.00 46 1013.4
20260905185218 32 157 11.3 12.9 0.00 0.00 0.00 47 1013.5
20260905184714 31 149 11.3 12.9 0.00 0.00 0.00 48 1013.8
20260905184212 32 164 12.9 14.5 0.00 0.00 0.00 47 1013.7
20260905183712 31 74 8.0 11.3 0.00 0.00 0.00 50 1013.8
20260905183208 31 95 9.7 12.9 0.00 0.00 0.00 49 1014.1
20260905182706 31 121 9.7 12.9 0.00 0.00 0.00 51 1013.9
20260905182201 30 157 8.0 9.7 0.00 0.00 0.00 51 1014.2
20260905181656 30 72 9.7 12.9 0.00 0.00 0.00 52 1014.1
20260905181155 30 106 14.5 17.7 0.00 0.00 0.00 51 1014.1
20260905180650 31 131 9.7 12.9 0.00 0.00 0.00 51 1014.0
20260905180145 30 101 14.5 16.1 0.00 0.00 0.00 49 1014.2
20260905175644 30 162 9.7 12.9 0.00 0.00 0.00 51 1014.3
20260905175140 30 120 8.0 12.9 0.00 0.00 0.00 53 1014.1
20260905174636 30 138 9.7 11.3 0.00 0.00 0.00 52 1014.2
20260905174131 30 119 9.7 11.3 0.00 0.00 0.00 53 1014.4
20260905173626 30 155 14.5 16.1 0.00 0.00 0.00 53 1014.6
20260905173122 30 142 11.3 14.5 0.00 0.00 0.00 53 1014.8
20260905172615 30 164 6.4 8.0 0.00 0.00 0.00 55 1014.4
20260905172110 29 129 11.3 12.9 0.00 0.00 0.00 54 1014.3
20260905171607 29 150 8.0 11.3 0.00 0.00 0.00 56 1014.1
20260905171102 28 85 9.7 12.9 0.00 0.00 0.00 55 1014.4
20260905170559 29 83 8.0 9.7 0.00 0.00 0.00 55 1014.1
20260905170054 28 155 6.4 8.0 0.00 0.00 0.00 56 1014.4
20260905165548 28 149 11.3 14.5 0.00 0.00 0.00 56 1014.3
20260905165038 28 141 9.7 12.9 0.00 0.00 0.00 57 1014.2
20260905164538 28 166 12.9 14.5 0.00 0.00 0.00 57 1014.2
20260905164032 28 156 11.3 14.5 0.00 0.00 0.00 56 1014.3
20260905163529 28 121 16.1 20.9 0.00 0.00 0.00 56 1014.4
20260905163025 28 158 11.3 11.3 0.00 0.00 0.00 56 1014.2
20260905162520 28 155 14.5 17.7 0.00 0.00 0.00 57 1014.3
20260905162014 28 119 11.3 14.5 0.00 0.00 0.00 57 1014.3
20260905161509 28 146 16.1 17.7 0.00 0.00 0.00 56 1014.3
20260905161006 27 134 17.7 22.5 0.00 0.00 0.00 58 1014.3
20260905160500 28 115 8.0 9.7 0.00 0.00 0.00 60 1014.4
20260905155959 28 122 11.3 12.9 0.00 0.00 0.00 57 1014.9
20260905155454 28 152 6.4 8.0 0.00 0.00 0.00 58 1014.9
20260905154953 28 116 3.2 3.2 0.00 0.00 0.00 58 1014.5
20260905154448 27 89 3.2 3.2 0.00 0.00 0.00 61 1014.5
20260905153944 27 89 8.0 11.3 0.00 0.00 0.00 62 1014.3
20260905153440 27 144 8.0 9.7 0.00 0.00 0.00 63 1014.1
20260905152939 27 153 8.0 11.3 0.00 0.00 0.00 62 1014.4
20260905152434 26 73 3.2 3.2 0.00 0.00 0.00 64 1014.5
20260905151928 26 108 6.4 8.0 0.00 0.00 0.00 65 1014.2
20260905151419 26 111 4.8 8.0 0.00 0.00 0.00 65 1014.2
20260905150918 26 91 8.0 8.0 0.00 0.00 0.00 66 1014.1
20260905150413 26 85 4.8 4.8 0.00 0.00 0.00 66 1014.3
20260905145909 26 54 4.8 4.8 0.00 0.00 0.00 66 1014.5
20260905145409 25 81 3.2 3.2 0.00 0.00 0.00 68 1014.1
20260905144904 26 61 3.2 3.2 0.00 0.00 0.00 66 1014.2
20260905144359 25 84 1.6 3.2 0.00 0.00 0.00 68 1014.4
20260905143857 25 57 1.6 1.6 0.00 0.00 0.00 70 1014.3
20260905143351 25 57 4.8 4.8 0.00 0.00 0.00 69 1013.9
20260905142846 24 54 8.0 9.7 0.00 0.00 0.00 71 1013.7
20260905142344 24 75 4.8 4.8 0.00 0.00 0.00 73 1013.9
20260905141841 24 49 3.2 3.2 0.00 0.00 0.00 72 1013.9
20260905141336 25 60 1.6 1.6 0.00 0.00 0.00 71 1014.0
20260905140832 24 115 9.7 11.3 0.00 0.00 0.00 72 1013.3
20260905140331 23 134 14.5 16.1 0.00 0.00 0.00 73 1013.0
20260905135830 23 128 11.3 12.9 0.00 0.00 0.00 74 1013.2
20260905135326 22 189 11.3 12.9 0.00 0.00 0.00 77 1013.0
20260905134821 22 65 9.7 12.9 0.00 0.00 0.00 80 1012.7
20260905134314 22 96 8.0 11.3 0.00 0.00 0.00 79 1013.0
20260905133809 22 127 8.0 9.7 0.00 0.00 0.00 80 1012.9
20260905133305 22 99 8.0 9.7 0.00 0.00 0.00 80 1012.7
20260905132803 22 122 9.7 12.9 0.00 0.00 0.00 81 1012.7
20260905132259 21 115 8.0 11.3 0.00 0.00 0.00 81 1012.6
20260905131759 21 105 8.0 9.7 0.00 0.00 0.00 82 1012.4
20260905131254 21 103 9.7 11.3 0.00 0.00 0.00 82 1012.7
20260905130750 21 77 8.0 9.7 0.00 0.00 0.00 83 1012.5
20260905130249 21 125 6.4 8.0 0.00 0.00 0.00 83 1012.5
20260905125744 21 103 8.0 9.7 0.00 0.00 0.00 84 1012.7
20260905125239 21 111 8.0 11.3 0.00 0.00 0.00 84 1012.4
20260905124735 21 90 11.3 12.9 0.00 0.00 0.00 85 1012.5
20260905124231 21 91 9.7 11.3 0.00 0.00 0.00 85 1012.7
20260905123726 21 127 9.7 11.3 0.00 0.00 0.00 85 1012.6
20260905123223 21 138 8.0 11.3 0.00 0.00 0.00 86 1012.4
20260905122722 21 106 11.3 12.9 0.00 0.00 0.00 87 1011.9
20260905122217 20 157 11.3 14.5 0.00 0.00 0.00 88 1012.1
20260905121712 20 130 8.0 9.7 0.00 0.00 0.00 88 1012.1
20260905121209 20 142 12.9 14.5 0.00 0.00 0.00 88 1012.0
20260905120707 20 76 12.9 16.1 0.00 0.00 0.00 89 1012.0
20260905120201 20 102 12.9 14.5 0.00 0.00 0.00 89 1012.0
20260905115656 20 120 9.7 12.9 0.00 0.00 0.00 89 1012.0
20260905115151 20 109 11.3 12.9 0.00 0.00 0.00 90 1012.1
20260905114651 20 131 11.3 12.9 0.00 0.00 0.00 90 1012.1
20260905114149 20 83 9.7 12.9 0.00 0.00 0.00 90 1012.0
20260905113644 20 106 9.7 11.3 0.00 0.00 0.00 91 1012.2
20260905113139 20 128 6.4 8.0 0.00 0.00 0.00 91 1012.2
20260905112633 20 90 6.4 8.0 0.00 0.00 0.00 91 1012.1
20260905112130 20 106 4.8 4.8 0.00 0.00 0.00 90 1012.4
20260905111629 20 119 6.4 8.0 0.00 0.00 0.00 90 1012.3
20260905111128 20 95 8.0 8.0 0.00 0.00 0.00 90 1012.2
20260905110628 20 143 11.3 12.9 0.00 0.00 0.00 90 1012.0
20260905110123 20 131 8.0 9.7 0.00 0.00 0.00 90 1011.9
20260905105618 20 118 11.3 12.9 0.00 0.00 0.00 90 1011.9
20260905105117 20 114 9.7 11.3 0.00 0.00 0.00 90 1012.1
20260905104612 20 109 9.7 12.9 0.00 0.00 0.00 90 1011.9
20260905104107 20 126 11.3 14.5 0.00 0.00 0.00 90 1011.6
20260905103602 20 148 9.7 11.3 0.00 0.00 0.00 90 1011.8
20260905103059 20 112 8.0 11.3 0.00 0.00 0.00 90 1011.5
20260905102554 20 131 14.5 14.5 0.00 0.00 0.00 90 1011.7
20260905102050 20 132 12.9 14.5 0.00 0.00 0.00 90 1011.7
20260905101549 20 129 9.7 11.3 0.00 0.00 0.00 89 1011.6
20260905101047 20 107 14.5 17.7 0.00 0.00 0.00 89 1011.7
20260905100544 20 101 14.5 20.9 0.00 0.00 0.00 89 1011.5
20260905100043 20 108 14.5 17.7 0.00 0.00 0.00 89 1011.4
20260905095537 20 98 17.7 20.9 0.00 0.00 0.00 89 1011.6
20260905095033 21 107 14.5 17.7 0.00 0.00 0.00 89 1011.4
20260905094528 21 87 17.7 20.9 0.00 0.00 0.00 88 1011.6
20260905094027 21 117 14.5 17.7 0.00 0.00 0.00 88 1011.3
20260905093516 21 90 22.5 27.4 0.00 0.00 0.00 88 1011.4
20260905093013 21 142 12.9 14.5 0.00 0.00 0.00 88 1011.5
20260905092513 21 144 12.9 14.5 0.00 0.00 0.00 88 1011.3
20260905092009 21 109 16.1 20.9 0.00 0.00 0.00 88 1011.4
20260905091508 21 117 16.1 17.7 0.00 0.00 0.00 87 1011.4
20260905091002 21 89 17.7 20.9 0.00 0.00 0.00 87 1011.6
20260905090457 21 136 16.1 20.9 0.00 0.00 0.00 87 1011.4
20260905085956 21 105 16.1 20.9 0.00 0.00 0.00 86 1011.5
20260905085455 21 112 16.1 17.7 0.00 0.00 0.00 86 1011.4
20260905084951 21 110 16.1 17.7 0.00 0.00 0.00 85 1011.5
20260905084451 21 126 14.5 16.1 0.00 0.00 0.00 84 1011.7
20260905083945 21 97 14.5 16.1 0.00 0.00 0.00 83 1011.8
20260905083442 21 85 17.7 22.5 0.00 0.00 0.00 82 1011.9
20260905082937 21 105 17.7 22.5 0.00 0.00 0.00 82 1011.9
20260905082433 21 100 11.3 12.9 0.00 0.00 0.00 81 1011.9
20260905081927 21 98 12.9 12.9 0.00 0.00 0.00 81 1011.9
20260905081422 21 116 14.5 16.1 0.00 0.00 0.00 80 1011.9
20260905080921 22 103 12.9 16.1 0.00 0.00 0.00 80 1011.9
20260905080416 22 101 17.7 20.9 0.00 0.00 0.00 80 1011.9
20260905075915 22 110 14.5 14.5 0.00 0.00 0.00 79 1012.0
20260905075409 22 145 14.5 17.7 0.00 0.00 0.00 79 1011.9
20260905074908 22 110 11.3 16.1 0.00 0.00 0.00 79 1012.2
20260905074404 22 108 20.9 25.7 0.00 0.00 0.00 78 1012.1
20260905073900 22 130 14.5 17.7 0.00 0.00 0.00 78 1012.2
20260905073355 22 109 12.9 14.5 0.00 0.00 0.00 78 1012.0
20260905072850 22 103 14.5 14.5 0.00 0.00 0.00 78 1012.2
20260905072345 22 122 14.5 17.7 0.00 0.00 0.00 77 1012.2
20260905071841 22 110 14.5 16.1 0.00 0.00 0.00 77 1012.3
20260905071337 22 111 14.5 16.1 0.00 0.00 0.00 77 1012.2
20260905070832 22 103 9.7 11.3 0.00 0.00 0.00 77 1012.3
20260905070328 22 67 14.5 16.1 0.00 0.00 0.00 77 1012.2
20260905065827 22 121 16.1 22.5 0.00 0.00 0.00 77 1012.4
20260905065325 22 141 14.5 20.9 0.00 0.00 0.00 77 1012.4
20260905064821 22 115 19.3 22.5 0.00 0.00 0.00 76 1012.2
20260905064317 22 78 17.7 22.5 0.00 0.00 0.00 76 1012.2
20260905063814 22 142 16.1 20.9 0.00 0.00 0.00 77 1012.3
20260905063311 22 98 11.3 12.9 0.00 0.00 0.00 77 1012.2
20260905062807 22 108 12.9 14.5 0.00 0.00 0.00 76 1012.4
20260905062305 23 94 14.5 16.1 0.00 0.00 0.00 76 1012.4
20260905061755 23 81 11.3 12.9 0.00 0.00 0.00 76 1012.5
20260905061250 23 86 11.3 12.9 0.00 0.00 0.00 75 1012.3
20260905060744 23 59 22.5 27.4 0.00 0.00 0.00 74 1012.2
20260905060242 23 102 17.7 20.9 0.00 0.00 0.00 73 1012.4
20260905055740 23 94 14.5 20.9 0.00 0.00 0.00 73 1012.4
20260905055235 23 76 19.3 24.1 0.00 0.00 0.00 73 1012.2
20260905054730 23 61 17.7 22.5 0.00 0.00 0.00 73 1012.5
20260905054227 23 119 17.7 20.9 0.00 0.00 0.00 73 1012.2
20260905053725 23 130 29.0 37.0 0.00 0.00 0.00 74 1012.3
20260905053221 23 108 17.7 20.9 0.00 0.00 0.00 74 1012.5
20260905052715 23 108 22.5 25.7 0.00 0.00 0.00 75 1012.4
20260905052210 23 91 12.9 14.5 0.00 0.00 0.00 74 1012.5
20260905051710 23 107 11.3 14.5 0.00 0.00 0.00 74 1013.0
20260905051207 23 102 16.1 20.9 0.00 0.00 0.00 73 1012.6
20260905050702 23 132 16.1 20.9 0.00 0.00 0.00 73 1012.6
20260905050159 23 120 17.7 22.5 0.00 0.00 0.00 73 1012.5
20260905045658 23 118 16.1 17.7 0.00 0.00 0.00 74 1012.5
20260905045154 23 101 12.9 14.5 0.00 0.00 0.00 74 1012.4
20260905044649 23 65 14.5 20.9 0.00 0.00 0.00 74 1012.6
20260905044144 23 90 11.3 14.5 0.00 0.00 0.00 74 1012.4
20260905043642 23 73 14.5 17.7 0.00 0.00 0.00 74 1012.5
20260905043138 23 120 14.5 22.5 0.00 0.00 0.00 73 1012.4
20260905042637 23 116 19.3 24.1 0.00 0.00 0.00 73 1012.6
20260905042131 23 139 16.1 22.5 0.00 0.00 0.00 73 1012.6
20260905041627 23 102 11.3 14.5 0.00 0.00 0.00 73 1012.7
20260905041122 23 124 11.3 14.5 0.00 0.00 0.00 72 1012.6
20260905040617 23 106 14.5 16.1 0.00 0.00 0.00 72 1012.5
20260905040116 23 122 11.3 12.9 0.00 0.00 0.00 72 1012.6
20260905035611 23 119 16.1 16.1 0.00 0.00 0.00 72 1012.7
20260905035107 23 95 14.5 20.9 0.00 0.00 0.00 72 1012.5
20260905034603 23 91 17.7 20.9 0.00 0.00 0.00 72 1012.7
20260905034057 24 128 9.7 14.5 0.00 0.00 0.00 72 1012.7
20260905033551 23 162 17.7 22.5 0.00 0.00 0.00 72 1012.6
20260905033047 23 137 19.3 25.7 0.00 0.00 0.00 72 1012.5
20260905032546 23 100 14.5 17.7 0.00 0.00 0.00 72 1012.9
20260905032041 23 125 16.1 20.9 0.00 0.00 0.00 72 1012.9
20260905031537 23 98 16.1 24.1 0.00 0.00 0.00 72 1012.7
20260905031037 24 79 12.9 14.5 0.00 0.00 0.00 71 1013.1
20260905030527 24 108 12.9 16.1 0.00 0.00 0.00 70 1012.9
20260905030027 24 117 9.7 11.3 0.00 0.00 0.00 70 1012.7
20260905025522 24 100 16.1 20.9 0.00 0.00 0.00 70 1012.9
20260905025019 25 80 14.5 17.7 0.00 0.00 0.00 69 1013.0
20260905024513 25 68 19.3 20.9 0.00 0.00 0.00 68 1013.0
20260905024009 25 89 12.9 16.1 0.00 0.00 0.00 68 1013.1
20260905023509 25 78 12.9 14.5 0.00 0.00 0.00 68 1012.9